West Point, VA

2:08 PM EST on February 21, 2018 (GMT -0500)
West Point

Weather History for KFYJ - August, 2013

Change the Weather History Date:

Thursday, August 1, 2013

  Actual Average (KJGG) Record (KJGG)
Temperature  
Mean Temperature 76 °F -  
Max Temperature 83 °F 89 °F 102 °F (1980)
Min Temperature 70 °F 66 °F 52 °F (1992)
Cooling Degree Days 12    
Growing Degree Days 26 (Base 50)    
Moisture  
Dew Point 72 °F    
Average Humidity 88    
Maximum Humidity 100    
Minimum Humidity 65    
Precipitation  
Precipitation 0.21 in - - ()
Sea Level Pressure  
Sea Level Pressure 29.93 in    
Wind  
Wind Speed 4 mph (South)    
Max Wind Speed 12 mph    
Max Gust Speed 16 mph    
Visibility 9 miles    
Events      
Averages and records for this station are not official NWS values.
T = Trace of Precipitation, MM = Missing Value Source: NWS Daily Summary

Daily Weather History Graph

Daily Weather History Graph

Search for Another Location

Airport or City:

Trip Planner

Search our weather history database for the weather conditions in past years. The results will help you decide how hot, cold, wet, or windy it might be!

Date:

Astronomy

Aug. 01, 2013 Rise Set
Actual Time 6:11 AM EDT 8:14 PM EDT
Civil Twilight 5:42 AM EDT 8:43 PM EDT
Nautical Twilight 5:06 AM EDT 9:18 PM EDT
Astronomical Twilight 4:28 AM EDT 9:56 PM EDT
Moon 1:46 AM EDT (8/1) 4:21 PM EDT (8/1)
Length of Visible Light 15h 01m
Length of Day
14h 03m
Waning Crescent, 23% of the Moon is Illuminated
Aug 1
Waning Crescent
Aug 6
New
Aug 14
First Quarter
Aug 20
Full
Aug 28
Last Quarter

Hourly Weather History & Observations

Time (EDT) Temp. Heat Index Dew Point Humidity Pressure Visibility Wind Dir Wind Speed Gust Speed Precip Events Conditions
12:15 AM 72.0 °F - 71.8 °F 99% 30.06 in 10.0 mi Calm Calm - N/A   Overcast
12:35 AM 72.0 °F - 71.6 °F 99% 30.06 in 7.0 mi South 3.5 mph - N/A   Overcast
12:55 AM 71.8 °F - 71.6 °F 99% 30.05 in 10.0 mi Calm Calm - N/A   Overcast
1:15 AM 71.8 °F - 71.6 °F 99% 30.04 in 7.0 mi Calm Calm - 0.01 in   Overcast
1:35 AM 71.8 °F - 71.6 °F 99% 30.04 in 7.0 mi Calm Calm - 0.01 in   Overcast
1:55 AM 71.8 °F - 71.8 °F 100% 30.03 in - Calm Calm - 0.02 in   Unknown
2:15 AM 71.2 °F - 71.2 °F 100% 30.02 in 5.0 mi ENE 3.5 mph - N/A   Overcast
2:35 AM 71.1 °F - 71.1 °F 100% 30.01 in 4.0 mi ENE 4.6 mph - N/A   Overcast
2:55 AM 70.9 °F - 70.9 °F 100% 29.99 in 4.0 mi East 4.6 mph - N/A   Mostly Cloudy
3:15 AM 70.9 °F - 70.9 °F 100% 29.98 in 5.0 mi East 3.5 mph - 0.01 in   Scattered Clouds
3:35 AM 70.7 °F - 70.7 °F 100% 29.97 in 7.0 mi East 5.8 mph - 0.01 in   Clear
3:55 AM 70.7 °F - 70.7 °F 100% 29.97 in 10.0 mi ESE 3.5 mph - 0.01 in   Clear
4:15 AM 70.9 °F - 70.9 °F 100% 29.96 in 10.0 mi ESE 5.8 mph - N/A   Scattered Clouds
4:35 AM 71.2 °F - 71.2 °F 100% 29.96 in 10.0 mi ESE 5.8 mph - N/A   Overcast
4:55 AM 71.6 °F - 71.6 °F 100% 29.96 in 10.0 mi South 5.8 mph - N/A   Overcast
5:15 AM 72.0 °F - 72.0 °F 100% 29.96 in 5.0 mi South 3.5 mph - 0.03 in   Overcast
5:35 AM 72.5 °F - 72.5 °F 100% 29.96 in 10.0 mi SSE 6.9 mph - 0.03 in   Overcast
5:55 AM 72.9 °F - 72.9 °F 100% 29.96 in 10.0 mi SSE 6.9 mph - 0.03 in   Overcast
6:15 AM 72.9 °F - 72.9 °F 100% 29.97 in 10.0 mi SSE 6.9 mph - N/A   Overcast
6:35 AM 72.7 °F - 72.7 °F 100% 29.96 in 10.0 mi SSE 6.9 mph - N/A   Overcast
6:55 AM 72.5 °F - 72.5 °F 100% 29.96 in 10.0 mi SSE 6.9 mph - N/A   Mostly Cloudy
7:15 AM 72.9 °F - 72.9 °F 100% 29.96 in 10.0 mi South 4.6 mph - N/A   Mostly Cloudy
7:35 AM 72.5 °F - 72.5 °F 100% 29.96 in 10.0 mi South 8.1 mph - N/A   Mostly Cloudy
7:55 AM 72.9 °F - 72.9 °F 100% 29.96 in 7.0 mi SSE 5.8 mph - N/A   Overcast
8:15 AM 72.7 °F - 72.7 °F 100% 29.96 in 7.0 mi SSE 8.1 mph - N/A   Overcast
8:35 AM 73.2 °F - 73.0 °F 99% 29.96 in 10.0 mi SSE 8.1 mph - N/A   Overcast
8:55 AM 73.6 °F - 73.4 °F 99% 29.96 in 10.0 mi SSE 10.4 mph - N/A   Overcast
9:15 AM 73.4 °F - 73.0 °F 99% 29.95 in 10.0 mi SSE 6.9 mph - N/A   Overcast
9:35 AM 73.9 °F - 73.4 °F 98% 29.95 in 10.0 mi South 9.2 mph - N/A   Overcast
9:55 AM 74.1 °F - 73.0 °F 96% 29.95 in 10.0 mi South 4.6 mph - N/A   Overcast
10:15 AM 74.1 °F - 73.4 °F 98% 29.95 in 10.0 mi South 6.9 mph - N/A   Overcast
10:35 AM 74.3 °F - 73.4 °F 97% 29.95 in 10.0 mi SSE 8.1 mph - N/A   Overcast
10:55 AM 74.3 °F - 73.4 °F 97% 29.95 in 10.0 mi South 9.2 mph - N/A   Overcast
11:15 AM - - - N/A% - - North - - N/A   Unknown
11:35 AM 77.2 °F - 71.8 °F 83% 29.93 in 7.0 mi South 8.1 mph - 0.06 in   Overcast
11:55 AM 77.4 °F - 72.0 °F 83% 29.93 in 7.0 mi South 5.8 mph - 0.06 in   Overcast
12:15 PM 77.5 °F - 71.8 °F 82% 29.92 in 10.0 mi SSW 6.9 mph - N/A   Overcast
12:35 PM 79.2 °F - 71.6 °F 78% 29.92 in 10.0 mi SW 9.2 mph - N/A   Overcast
12:55 PM 79.3 °F - 71.6 °F 77% 29.91 in 10.0 mi SSW 5.8 mph - N/A   Overcast
1:15 PM 80.4 °F 84.1 °F 71.1 °F 73% 29.90 in 10.0 mi SW 8.1 mph - N/A   Overcast
1:35 PM 81.7 °F 85.8 °F 70.9 °F 70% 29.90 in 10.0 mi SW 8.1 mph - N/A   Overcast
1:55 PM 82.2 °F 86.4 °F 70.7 °F 68% 29.89 in 10.0 mi SW 6.9 mph - N/A   Overcast
2:15 PM 82.0 °F 85.9 °F 70.2 °F 67% 29.89 in 10.0 mi WSW 11.5 mph - N/A   Overcast
2:35 PM 81.5 °F 85.3 °F 70.3 °F 69% 29.90 in 10.0 mi SW 6.9 mph - N/A   Overcast
2:55 PM 83.7 °F 88.3 °F 70.9 °F 65% 29.89 in 10.0 mi WSW 8.1 mph - N/A   Mostly Cloudy
3:15 PM 81.1 °F 84.7 °F 70.2 °F 69% 29.88 in 10.0 mi West 9.2 mph - N/A   Overcast
3:35 PM 77.7 °F - 72.0 °F 82% 29.88 in 7.0 mi WNW 9.2 mph 16.1 mph 0.01 in   Mostly Cloudy
3:55 PM 75.2 °F - 68.9 °F 81% 29.87 in 7.0 mi WNW 10.4 mph - 0.02 in   Mostly Cloudy
4:15 PM 75.2 °F - 70.5 °F 85% 29.86 in 1.2 mi NNW 4.6 mph - 0.06 in   Overcast
4:35 PM 77.9 °F - 71.6 °F 81% 29.85 in 10.0 mi South 3.5 mph - 0.07 in   Scattered Clouds
4:55 PM 79.7 °F - 71.2 °F 75% 29.85 in 10.0 mi Calm Calm - 0.07 in   Clear
5:15 PM 81.0 °F 84.9 °F 71.1 °F 72% 29.86 in 10.0 mi Calm Calm - N/A   Scattered Clouds
5:35 PM 80.8 °F 84.7 °F 71.2 °F 73% 29.86 in 10.0 mi Calm Calm - N/A   Mostly Cloudy
5:55 PM 82.4 °F 87.4 °F 72.3 °F 71% 29.86 in 10.0 mi NW 3.5 mph - N/A   Mostly Cloudy
6:15 PM 82.6 °F 87.3 °F 71.4 °F 69% 29.86 in 10.0 mi Calm Calm - N/A   Scattered Clouds
6:35 PM 82.6 °F 87.6 °F 72.0 °F 70% 29.86 in 10.0 mi Calm Calm - N/A   Mostly Cloudy
6:55 PM 81.7 °F 86.5 °F 72.3 °F 73% 29.87 in 10.0 mi Calm Calm - N/A   Mostly Cloudy
7:15 PM 79.7 °F - 72.5 °F 79% 29.87 in 10.0 mi Calm Calm - N/A   Mostly Cloudy
7:35 PM 78.8 °F - 72.5 °F 81% 29.87 in 10.0 mi East 3.5 mph - N/A   Scattered Clouds
7:55 PM 78.1 °F - 72.7 °F 83% 29.87 in 10.0 mi Calm Calm - N/A   Clear
8:15 PM 77.5 °F - 72.9 °F 85% 29.86 in 10.0 mi SE 3.5 mph - N/A   Clear
8:35 PM 77.2 °F - 72.9 °F 86% 29.86 in 10.0 mi ESE 4.6 mph - N/A   Scattered Clouds
8:55 PM 77.2 °F - 73.0 °F 87% 29.86 in 10.0 mi Calm Calm - N/A   Mostly Cloudy
9:15 PM 76.8 °F - 72.9 °F 88% 29.85 in 10.0 mi SE 9.2 mph - N/A   Scattered Clouds
9:35 PM 77.0 °F - 73.2 °F 88% 29.88 in 10.0 mi South 3.5 mph - N/A   Mostly Cloudy
9:55 PM 77.9 °F - 73.9 °F 88% 29.89 in 10.0 mi WSW 4.6 mph - N/A   Mostly Cloudy
10:15 PM 75.4 °F - 70.9 °F 86% 29.89 in 10.0 mi SW 10.4 mph - N/A   Mostly Cloudy
10:35 PM 74.5 °F - 70.0 °F 86% 29.90 in 10.0 mi WSW 4.6 mph - N/A   Scattered Clouds
10:55 PM 74.7 °F - 70.0 °F 85% 29.91 in 10.0 mi WSW 5.8 mph - N/A   Mostly Cloudy
11:15 PM 74.1 °F - 69.8 °F 86% 29.91 in 10.0 mi WSW 4.6 mph - N/A   Scattered Clouds
11:35 PM 73.8 °F - 69.8 °F 87% 29.91 in 10.0 mi WSW 5.8 mph - N/A   Clear
11:55 PM 73.4 °F - 69.4 °F 87% 29.91 in 10.0 mi WNW 4.6 mph - N/A   Scattered Clouds